Location: Kimberly
(42.5380°N, 114.3640°W)
Time: 23:02:59
(UTC-06:00)

Tiangong 2 - Visible Passes

Search period start: 19 July 2018 00:00
Search period end: 29 July 2018 00:00
Orbit: 386 x 394 km, 42.8° (Epoch: 19 July)

Date Brightness Start Highest point End Pass type
(mag) Time Alt. Az. Time Alt. Az. Time Alt. Az.
19 Jul 1.0 22:05:15 10° W 22:08:26 87° S 22:11:19 12° E visible
19 Jul 3.1 23:42:16 10° W 23:43:38 20° WSW 23:43:38 20° WSW visible
20 Jul 1.5 22:44:27 10° W 22:47:31 47° SSW 22:48:20 36° SSE visible
21 Jul 1.2 21:46:42 10° W 21:49:52 66° SSW 21:53:01 10° ESE visible
21 Jul 3.3 23:24:05 10° WSW 23:25:22 16° SW 23:25:22 16° SW visible
22 Jul 2.3 22:26:01 10° W 22:28:50 29° SSW 22:30:06 21° SSE visible
23 Jul 3.8 23:06:59 10° SW 23:07:11 10° SW 23:07:11 10° SW visible
24 Jul 3.2 22:07:52 10° WSW 22:10:03 17° SSW 22:11:59 11° S visible
